Regional Weather Roundup
Issued by NWS

Home | Current Version | Previous Version | Graphics & Text | Print | Product List | Glossary On
Versions: 1 2 3 4 5 6 7 8 9 10 11 12 13 14 15 16 17 18 19 20 21 22 23 24 25 26 27 28 29 30 31 32 33 34 35 36 37 38 39 40 41 42 43 44 45 46 47 48 49 50
000
ASUS43 KFSD 061302
RWRSD

WEATHER ROUNDUP FOR SOUTH DAKOTA
NATIONAL WEATHER SERVICE SIOUX FALLS SD
700 AM CST SAT FEB 06 2016

NOTE: "FAIR" INDICATES FEW OR NO CLOUDS BELOW 12,000 FEET WITH NO
SIGNIFICANT WEATHER AND/OR OBSTRUCTIONS TO VISIBILITY.


SDZ001>005-009-010-012>017-061400-
NORTHWEST AND NORTH CENTRAL SOUTH DAKOTA

CITY           SKY/WX    TMP DP  RH WIND       PRES   REMARKS
BUFFALO          N/A     32  18  56 SW7       29.86F WCI  26
FAITH            N/A     31  19  61 SW15      29.95F WCI  20
MOBRIDGE       CLOUDY    29  22  75 SE9       29.91F WCI  20
$$

SDZ012>016-024>037-041>051-057-063-072>074-061400-
SOUTHWEST AND SOUTH CENTRAL SOUTH DAKOTA

CITY           SKY/WX    TMP DP  RH WIND       PRES   REMARKS
RAPID CTY ARPT CLOUDY    26  17  68 CALM      30.02S
PIERRE         PTCLDY    29  20  69 SW18      30.00F WCI  16
CUSTER         CLOUDY    30  11  45 SW12G24   30.03S WCI  20
ELLSWORTH AFB  CLOUDY    34  20  56 W13       30.00F WCI  25
PHILIP         CLOUDY    28  20  71 W13       30.02F WCI  17
PINE RIDGE     CLOUDY    26  15  63 W8        30.10F WCI  18
WINNER         FAIR      27  16  63 SW12      30.06F WCI  17
$$

SDZ004>011-016>023-039-040-061400-
NORTHEAST SOUTH DAKOTA

CITY           SKY/WX    TMP DP  RH WIND       PRES   REMARKS
ABERDEEN       CLOUDY    24  20  84 S12       29.97F WCI  13
WATERTOWN      CLOUDY    20  16  84 S6        30.00F WCI  12
BROOKINGS      CLOUDY    20  18  92 S9        30.06F WCI   9
SISSETON         N/A     31  23  72 W18       29.94F WCI  19
$$

SDZ017-020-022-023-036>040-048>070-061400-
SOUTHEAST SOUTH DAKOTA

CITY           SKY/WX    TMP DP  RH WIND       PRES   REMARKS
SIOUX FALLS    CLOUDY    19  16  88 S6        30.13S WCI  11
HURON          CLOUDY    23  19  85 S12       30.04F WCI  12
CHAMBERLAIN    CLEAR     23  19  87 S6        30.06F WCI  15
MITCHELL       PTCLDY    26  21  81 SW10      30.09F WCI  16
YANKTON        CLOUDY    19  16  86 S5        30.15F WCI  13
$$

ABBREVIATIONS USED IN REMARKS
   TC - TEMPERATURE IN CELSIUS
  WCI - WIND CHILL INDEX
   HX - HEAT INDEX
  VSB - VISIBILITY




USA.gov is the U.S. government's official web portal to all federal, state and local government web resources and services.